| time (UTC) | temp F | wind direction | speed MPH | gust MPH | rain 1hr in | rain 24hr in | rain mn in | humidity % | barometer mb |
| 20260902000503 | 58 | 168 | 2.0 | 5.0 | 0.00 | 0.01 | 0.00 | 88 | 1015.7 |
| 20260902000005 | 59 | 170 | 2.0 | 5.0 | 0.00 | 0.01 | 0.00 | 87 | 1015.8 |
| 20260901234504 | 59 | 167 | 2.0 | 6.0 | 0.00 | 0.01 | 0.00 | 86 | 1015.9 |
| 20260901234005 | 59 | 170 | 2.0 | 6.0 | 0.00 | 0.01 | 0.00 | 85 | 1016.0 |
| 20260901232503 | 59 | 168 | 2.0 | 5.0 | 0.00 | 0.01 | 0.00 | 84 | 1016.0 |
| 20260901232005 | 59 | 170 | 2.0 | 6.0 | 0.00 | 0.01 | 0.00 | 84 | 1016.2 |
| 20260901231504 | 59 | 170 | 2.0 | 6.0 | 0.00 | 0.01 | 0.00 | 84 | 1016.2 |
| 20260901231006 | 59 | 162 | 2.0 | 6.0 | 0.00 | 0.01 | 0.00 | 84 | 1016.2 |
| 20260901230504 | 59 | 161 | 2.0 | 6.0 | 0.00 | 0.01 | 0.00 | 83 | 1016.3 |
| 20260901230006 | 59 | 167 | 2.0 | 5.0 | 0.00 | 0.01 | 0.00 | 83 | 1016.3 |
| 20260901225503 | 59 | 168 | 2.0 | 5.0 | 0.00 | 0.01 | 0.01 | 83 | 1016.3 |
| 20260901224504 | 59 | 163 | 2.0 | 7.0 | 0.00 | 0.01 | 0.01 | 83 | 1016.5 |
| 20260901224004 | 59 | 167 | 3.0 | 9.0 | 0.00 | 0.01 | 0.01 | 83 | 1016.6 |
| 20260901223504 | 59 | 164 | 2.0 | 9.0 | 0.00 | 0.01 | 0.01 | 83 | 1016.6 |
| 20260901223005 | 59 | 176 | 2.0 | 5.0 | 0.00 | 0.01 | 0.01 | 83 | 1016.6 |
| 20260901221503 | 59 | 0 | 0.0 | 0.0 | 0.00 | 0.01 | 0.01 | 83 | 1016.6 |
| 20260901221005 | 59 | 184 | 0.0 | 4.0 | 0.00 | 0.01 | 0.01 | 83 | 1016.6 |
| 20260901220504 | 59 | 187 | 1.0 | 4.0 | 0.00 | 0.01 | 0.01 | 83 | 1016.7 |
| 20260901220005 | 59 | 190 | 1.0 | 4.0 | 0.00 | 0.01 | 0.01 | 83 | 1016.7 |
| 20260901215505 | 59 | 184 | 1.0 | 5.0 | 0.00 | 0.01 | 0.01 | 84 | 1016.7 |
| 20260901215007 | 60 | 195 | 2.0 | 5.0 | 0.00 | 0.01 | 0.01 | 84 | 1016.7 |
| 20260901214505 | 60 | 195 | 2.0 | 6.0 | 0.00 | 0.01 | 0.01 | 84 | 1016.7 |
| 20260901214008 | 60 | 183 | 2.0 | 6.0 | 0.00 | 0.01 | 0.01 | 84 | 1016.7 |
| 20260901213506 | 60 | 194 | 1.0 | 6.0 | 0.00 | 0.01 | 0.01 | 85 | 1016.7 |
| 20260901212506 | 60 | 170 | 1.0 | 4.0 | 0.00 | 0.01 | 0.01 | 84 | 1016.9 |
| 20260901212006 | 60 | 199 | 1.0 | 4.0 | 0.00 | 0.01 | 0.01 | 84 | 1017.0 |
| 20260901211505 | 60 | 220 | 1.0 | 3.0 | 0.00 | 0.01 | 0.01 | 84 | 1016.9 |
| 20260901211007 | 60 | 210 | 1.0 | 3.0 | 0.00 | 0.01 | 0.01 | 84 | 1017.0 |
| 20260901210506 | 60 | 192 | 1.0 | 3.0 | 0.00 | 0.01 | 0.01 | 84 | 1016.9 |
| 20260901205506 | 60 | 177 | 1.0 | 3.0 | 0.00 | 0.01 | 0.01 | 84 | 1016.9 |
| 20260901205008 | 60 | 176 | 1.0 | 3.0 | 0.00 | 0.01 | 0.01 | 84 | 1016.9 |
| 20260901204506 | 60 | 183 | 1.0 | 3.0 | 0.00 | 0.01 | 0.01 | 84 | 1016.8 |
| 20260901204007 | 60 | 188 | 1.0 | 3.0 | 0.00 | 0.01 | 0.01 | 84 | 1016.8 |
| 20260901203505 | 60 | 190 | 1.0 | 3.0 | 0.00 | 0.01 | 0.01 | 84 | 1016.8 |
| 20260901203007 | 60 | 191 | 1.0 | 3.0 | 0.00 | 0.01 | 0.01 | 84 | 1016.9 |
| 20260901202506 | 60 | 191 | 0.0 | 3.0 | 0.00 | 0.01 | 0.01 | 83 | 1016.8 |
| 20260901202005 | 60 | 0 | 0.0 | 0.0 | 0.00 | 0.01 | 0.01 | 83 | 1016.8 |
| 20260901201505 | 60 | 0 | 0.0 | 0.0 | 0.00 | 0.01 | 0.01 | 83 | 1016.8 |
| 20260901201006 | 61 | 0 | 0.0 | 0.0 | 0.00 | 0.01 | 0.01 | 83 | 1016.9 |
| 20260901200506 | 61 | 0 | 0.0 | 0.0 | 0.00 | 0.01 | 0.01 | 83 | 1016.7 |
| 20260901195006 | 61 | 193 | 1.0 | 3.0 | 0.00 | 0.01 | 0.01 | 83 | 1017.0 |
| 20260901194506 | 61 | 193 | 1.0 | 3.0 | 0.00 | 0.01 | 0.01 | 82 | 1016.8 |
| 20260901194007 | 62 | 190 | 1.0 | 4.0 | 0.00 | 0.01 | 0.01 | 82 | 1016.7 |
| 20260901193505 | 62 | 201 | 1.0 | 5.0 | 0.00 | 0.01 | 0.01 | 82 | 1016.7 |
| 20260901193008 | 62 | 215 | 1.0 | 5.0 | 0.00 | 0.01 | 0.01 | 82 | 1016.7 |
| 20260901192006 | 62 | 0 | 0.0 | 0.0 | 0.00 | 0.01 | 0.01 | 82 | 1016.7 |
| 20260901191506 | 62 | 0 | 0.0 | 0.0 | 0.00 | 0.01 | 0.01 | 81 | 1016.6 |
| 20260901191007 | 62 | 0 | 0.0 | 0.0 | 0.00 | 0.01 | 0.01 | 81 | 1016.6 |
| 20260901190505 | 62 | 0 | 0.0 | 0.0 | 0.00 | 0.01 | 0.01 | 81 | 1016.6 |
| 20260901190006 | 62 | 0 | 0.0 | 0.0 | 0.00 | 0.01 | 0.01 | 81 | 1016.6 |
| 20260901185505 | 63 | 0 | 0.0 | 0.0 | 0.00 | 0.01 | 0.01 | 80 | 1016.7 |
| 20260901185006 | 63 | 0 | 0.0 | 0.0 | 0.00 | 0.01 | 0.01 | 80 | 1016.7 |
| 20260901184505 | 63 | 0 | 0.0 | 0.0 | 0.00 | 0.01 | 0.01 | 80 | 1016.6 |
| 20260901184006 | 63 | 0 | 0.0 | 0.0 | 0.00 | 0.01 | 0.01 | 80 | 1016.6 |
| 20260901183505 | 63 | 0 | 0.0 | 0.0 | 0.00 | 0.01 | 0.01 | 80 | 1016.6 |
| 20260901183007 | 63 | 279 | 0.0 | 1.0 | 0.00 | 0.01 | 0.01 | 79 | 1016.7 |
| 20260901182505 | 63 | 279 | 0.0 | 2.0 | 0.00 | 0.01 | 0.01 | 79 | 1016.7 |
| 20260901182006 | 63 | 275 | 1.0 | 6.0 | 0.00 | 0.01 | 0.01 | 78 | 1016.8 |
| 20260901181505 | 63 | 269 | 2.0 | 6.0 | 0.00 | 0.01 | 0.01 | 78 | 1016.8 |
| 20260901181006 | 63 | 263 | 2.0 | 6.0 | 0.00 | 0.01 | 0.01 | 78 | 1016.8 |
| 20260901180505 | 63 | 260 | 2.0 | 6.0 | 0.00 | 0.01 | 0.01 | 78 | 1016.9 |
| 20260901180007 | 63 | 250 | 2.0 | 4.0 | 0.00 | 0.01 | 0.01 | 78 | 1016.8 |
| 20260901175505 | 63 | 249 | 2.0 | 4.0 | 0.00 | 0.01 | 0.01 | 78 | 1016.8 |
| 20260901175006 | 63 | 262 | 2.0 | 4.0 | 0.00 | 0.01 | 0.01 | 78 | 1016.8 |
| 20260901174505 | 63 | 259 | 2.0 | 4.0 | 0.00 | 0.01 | 0.01 | 78 | 1016.8 |
| 20260901174008 | 63 | 250 | 2.0 | 4.0 | 0.00 | 0.01 | 0.01 | 78 | 1016.9 |
| 20260901173006 | 63 | 267 | 3.0 | 9.0 | 0.00 | 0.01 | 0.01 | 78 | 1017.0 |
| 20260901172505 | 63 | 272 | 3.0 | 9.0 | 0.00 | 0.01 | 0.01 | 78 | 1017.0 |
| 20260901171505 | 63 | 261 | 3.0 | 8.0 | 0.00 | 0.01 | 0.01 | 77 | 1017.1 |
| 20260901170505 | 64 | 270 | 5.0 | 13.0 | 0.00 | 0.01 | 0.01 | 76 | 1017.1 |
| 20260901170006 | 64 | 269 | 5.0 | 13.0 | 0.00 | 0.01 | 0.01 | 77 | 1017.1 |
| 20260901165505 | 64 | 266 | 5.0 | 11.0 | 0.00 | 0.01 | 0.01 | 77 | 1017.1 |
| 20260901165006 | 64 | 267 | 4.0 | 11.0 | 0.00 | 0.01 | 0.01 | 76 | 1017.1 |
| 20260901164505 | 64 | 266 | 4.0 | 11.0 | 0.00 | 0.01 | 0.01 | 77 | 1017.2 |
| 20260901164006 | 65 | 270 | 5.0 | 11.0 | 0.00 | 0.01 | 0.01 | 76 | 1017.0 |
| 20260901163506 | 65 | 271 | 4.0 | 8.0 | 0.00 | 0.01 | 0.01 | 75 | 1017.0 |
| 20260901163008 | 65 | 263 | 4.0 | 8.0 | 0.00 | 0.01 | 0.01 | 73 | 1016.9 |
| 20260901162505 | 66 | 247 | 3.0 | 6.0 | 0.00 | 0.01 | 0.01 | 73 | 1016.9 |
| 20260901162007 | 66 | 247 | 3.0 | 9.0 | 0.00 | 0.01 | 0.01 | 73 | 1016.9 |
| 20260901161505 | 66 | 256 | 3.0 | 9.0 | 0.00 | 0.01 | 0.01 | 73 | 1017.0 |
| 20260901161006 | 65 | 261 | 3.0 | 9.0 | 0.00 | 0.01 | 0.01 | 72 | 1017.1 |
| 20260901160505 | 65 | 257 | 3.0 | 7.0 | 0.00 | 0.01 | 0.01 | 72 | 1017.0 |
| 20260901160006 | 65 | 250 | 3.0 | 8.0 | 0.00 | 0.01 | 0.01 | 73 | 1016.9 |
| 20260901155505 | 65 | 251 | 3.0 | 8.0 | 0.00 | 0.01 | 0.01 | 73 | 1016.9 |
| 20260901155005 | 65 | 257 | 3.0 | 9.0 | 0.00 | 0.01 | 0.01 | 73 | 1017.0 |
| 20260901154007 | 65 | 252 | 3.0 | 8.0 | 0.00 | 0.01 | 0.01 | 73 | 1016.9 |
| 20260901153504 | 65 | 267 | 2.0 | 7.0 | 0.00 | 0.01 | 0.01 | 74 | 1017.0 |
| 20260901153006 | 65 | 273 | 2.0 | 6.0 | 0.00 | 0.01 | 0.01 | 75 | 1016.9 |
| 20260901152007 | 65 | 262 | 4.0 | 9.0 | 0.00 | 0.01 | 0.01 | 73 | 1017.0 |
| 20260901151505 | 65 | 270 | 5.0 | 14.0 | 0.00 | 0.01 | 0.01 | 73 | 1017.0 |
| 20260901151007 | 66 | 269 | 5.0 | 14.0 | 0.00 | 0.01 | 0.01 | 73 | 1017.1 |
| 20260901150505 | 66 | 258 | 4.0 | 11.0 | 0.00 | 0.01 | 0.01 | 71 | 1017.1 |
| 20260901150006 | 67 | 249 | 4.0 | 12.0 | 0.00 | 0.01 | 0.01 | 71 | 1017.0 |
| 20260901145006 | 67 | 262 | 2.0 | 7.0 | 0.00 | 0.01 | 0.01 | 70 | 1016.9 |
| 20260901144505 | 67 | 260 | 2.0 | 7.0 | 0.00 | 0.01 | 0.01 | 71 | 1017.1 |
| 20260901144005 | 67 | 255 | 2.0 | 7.0 | 0.00 | 0.01 | 0.01 | 71 | 1017.3 |
| 20260901143505 | 67 | 257 | 2.0 | 7.0 | 0.00 | 0.01 | 0.01 | 71 | 1017.2 |
| 20260901143005 | 67 | 260 | 2.0 | 4.0 | 0.00 | 0.01 | 0.01 | 70 | 1017.4 |
| 20260901142505 | 67 | 263 | 2.0 | 6.0 | 0.00 | 0.01 | 0.01 | 70 | 1017.1 |
| 20260901142006 | 67 | 266 | 2.0 | 6.0 | 0.00 | 0.01 | 0.01 | 70 | 1017.1 |
| 20260901141505 | 67 | 272 | 3.0 | 8.0 | 0.00 | 0.01 | 0.01 | 70 | 1017.2 |
| 20260901141006 | 67 | 270 | 3.0 | 8.0 | 0.00 | 0.01 | 0.01 | 70 | 1017.3 |
| 20260901140005 | 68 | 270 | 4.0 | 9.0 | 0.00 | 0.01 | 0.01 | 67 | 1017.2 |
| 20260901135505 | 68 | 260 | 4.0 | 9.0 | 0.00 | 0.01 | 0.01 | 67 | 1017.2 |
| 20260901134505 | 68 | 267 | 4.0 | 10.0 | 0.00 | 0.01 | 0.01 | 67 | 1017.2 |
| 20260901132505 | 69 | 262 | 4.0 | 11.0 | 0.00 | 0.01 | 0.01 | 67 | 1017.4 |
| 20260901132007 | 68 | 250 | 5.0 | 13.0 | 0.00 | 0.01 | 0.01 | 66 | 1017.4 |
| 20260901130505 | 68 | 259 | 4.0 | 11.0 | 0.00 | 0.01 | 0.01 | 71 | 1017.5 |
| 20260901130006 | 67 | 258 | 5.0 | 12.0 | 0.00 | 0.01 | 0.01 | 70 | 1017.4 |
| 20260901125005 | 66 | 249 | 4.0 | 12.0 | 0.00 | 0.01 | 0.01 | 70 | 1017.5 |
| 20260901124505 | 66 | 246 | 3.0 | 12.0 | 0.00 | 0.01 | 0.01 | 70 | 1017.4 |
| 20260901124007 | 66 | 253 | 3.0 | 8.0 | 0.00 | 0.01 | 0.01 | 72 | 1017.4 |
| 20260901122505 | 66 | 267 | 4.0 | 10.0 | 0.00 | 0.01 | 0.01 | 70 | 1017.6 |
| 20260901122005 | 66 | 266 | 4.0 | 10.0 | 0.00 | 0.01 | 0.01 | 70 | 1017.6 |
| 20260901121505 | 66 | 269 | 4.0 | 10.0 | 0.00 | 0.01 | 0.01 | 70 | 1017.5 |
| 20260901121006 | 66 | 263 | 5.0 | 10.0 | 0.00 | 0.01 | 0.01 | 70 | 1017.7 |
| 20260901120505 | 67 | 257 | 4.0 | 11.0 | 0.00 | 0.01 | 0.01 | 68 | 1017.7 |
| 20260901120007 | 67 | 263 | 5.0 | 12.0 | 0.00 | 0.01 | 0.01 | 70 | 1017.6 |
| 20260901115505 | 67 | 261 | 5.0 | 12.0 | 0.00 | 0.01 | 0.01 | 70 | 1017.6 |
| 20260901115005 | 67 | 254 | 4.0 | 10.0 | 0.00 | 0.01 | 0.01 | 70 | 1017.6 |
| 20260901114007 | 66 | 260 | 5.0 | 16.0 | 0.00 | 0.01 | 0.01 | 70 | 1017.6 |
| 20260901113505 | 66 | 267 | 6.0 | 16.0 | 0.00 | 0.01 | 0.01 | 71 | 1017.5 |
| 20260901112505 | 66 | 259 | 6.0 | 11.0 | 0.00 | 0.01 | 0.01 | 71 | 1017.7 |
| 20260901111504 | 66 | 262 | 6.0 | 13.0 | 0.00 | 0.01 | 0.01 | 71 | 1017.7 |
| 20260901111007 | 66 | 268 | 6.0 | 12.0 | 0.00 | 0.01 | 0.01 | 69 | 1017.7 |
| 20260901110505 | 67 | 270 | 5.0 | 11.0 | 0.00 | 0.01 | 0.01 | 68 | 1017.7 |
| 20260901110005 | 67 | 269 | 5.0 | 12.0 | 0.00 | 0.01 | 0.01 | 69 | 1017.7 |
| 20260901105505 | 67 | 264 | 5.0 | 12.0 | 0.00 | 0.01 | 0.01 | 70 | 1017.7 |
| 20260901105006 | 66 | 262 | 5.0 | 11.0 | 0.00 | 0.01 | 0.01 | 72 | 1017.6 |
| 20260901104505 | 65 | 253 | 4.0 | 11.0 | 0.00 | 0.01 | 0.01 | 72 | 1017.6 |
| 20260901104006 | 65 | 248 | 5.0 | 12.0 | 0.00 | 0.01 | 0.01 | 74 | 1017.8 |
| 20260901102504 | 65 | 267 | 5.0 | 9.0 | 0.00 | 0.01 | 0.01 | 73 | 1017.8 |
| 20260901102006 | 65 | 264 | 5.0 | 12.0 | 0.00 | 0.01 | 0.01 | 73 | 1017.7 |
| 20260901101504 | 65 | 259 | 6.0 | 12.0 | 0.00 | 0.01 | 0.01 | 72 | 1017.7 |
| 20260901101005 | 65 | 255 | 5.0 | 10.0 | 0.00 | 0.01 | 0.01 | 72 | 1017.7 |
| 20260901100005 | 65 | 258 | 5.0 | 13.0 | 0.00 | 0.01 | 0.01 | 71 | 1017.5 |
| 20260901095504 | 65 | 264 | 5.0 | 13.0 | 0.00 | 0.01 | 0.01 | 73 | 1017.6 |
| 20260901095006 | 66 | 260 | 6.0 | 12.0 | 0.00 | 0.01 | 0.01 | 71 | 1017.6 |
| 20260901094505 | 66 | 250 | 5.0 | 11.0 | 0.00 | 0.01 | 0.01 | 73 | 1017.6 |
| 20260901094006 | 65 | 248 | 4.0 | 11.0 | 0.00 | 0.01 | 0.01 | 74 | 1017.7 |
| 20260901093504 | 64 | 258 | 4.0 | 9.0 | 0.00 | 0.01 | 0.01 | 76 | 1017.8 |
| 20260901092505 | 64 | 265 | 5.0 | 12.0 | 0.01 | 0.01 | 0.01 | 77 | 1017.6 |
| 20260901092005 | 64 | 260 | 5.0 | 10.0 | 0.01 | 0.01 | 0.01 | 77 | 1017.7 |
| 20260901091504 | 64 | 261 | 5.0 | 9.0 | 0.01 | 0.01 | 0.01 | 77 | 1017.6 |
| 20260901090505 | 63 | 268 | 5.0 | 12.0 | 0.01 | 0.01 | 0.01 | 78 | 1017.5 |
| 20260901090013 | 63 | 253 | 5.0 | 12.0 | 0.01 | 0.01 | 0.01 | 78 | 1017.5 |
| 20260901085505 | 63 | 243 | 4.0 | 9.0 | 0.01 | 0.01 | 0.01 | 79 | 1017.5 |
| 20260901085006 | 63 | 261 | 3.0 | 8.0 | 0.01 | 0.01 | 0.01 | 80 | 1017.7 |
| 20260901084504 | 62 | 268 | 3.0 | 10.0 | 0.01 | 0.01 | 0.01 | 81 | 1017.6 |
| 20260901083505 | 61 | 242 | 3.0 | 8.0 | 0.01 | 0.01 | 0.01 | 82 | 1017.6 |
| 20260901083006 | 60 | 242 | 3.0 | 8.0 | 0.00 | 0.00 | 0.00 | 83 | 1017.5 |
| 20260901082504 | 60 | 243 | 2.0 | 6.0 | 0.00 | 0.00 | 0.00 | 84 | 1017.5 |
| 20260901082005 | 59 | 237 | 2.0 | 5.0 | 0.00 | 0.00 | 0.00 | 84 | 1017.5 |
| 20260901081504 | 59 | 228 | 2.0 | 5.0 | 0.00 | 0.00 | 0.00 | 84 | 1017.5 |
| 20260901081005 | 59 | 238 | 1.0 | 5.0 | 0.00 | 0.00 | 0.00 | 85 | 1017.4 |
| 20260901080504 | 59 | 230 | 2.0 | 6.0 | 0.00 | 0.00 | 0.00 | 85 | 1017.4 |
| 20260901080006 | 59 | 226 | 3.0 | 6.0 | 0.00 | 0.00 | 0.00 | 85 | 1017.4 |
| 20260901075504 | 58 | 235 | 3.0 | 5.0 | 0.00 | 0.00 | 0.00 | 85 | 1017.4 |
| 20260901074505 | 58 | 234 | 2.0 | 4.0 | 0.00 | 0.00 | 0.00 | 87 | 1017.5 |
| 20260901073504 | 57 | 236 | 2.0 | 6.0 | 0.00 | 0.00 | 0.00 | 87 | 1017.6 |
| 20260901073005 | 57 | 252 | 2.0 | 6.0 | 0.00 | 0.00 | 0.00 | 88 | 1017.8 |
| 20260901072007 | 56 | 213 | 1.0 | 3.0 | 0.00 | 0.00 | 0.00 | 88 | 1017.6 |
| 20260901071504 | 56 | 238 | 1.0 | 3.0 | 0.00 | 0.00 | 0.00 | 88 | 1017.6 |
| 20260901071006 | 56 | 242 | 1.0 | 4.0 | 0.00 | 0.00 | 0.00 | 88 | 1017.6 |
| 20260901070005 | 56 | 221 | 2.0 | 6.0 | 0.00 | 0.00 | 0.00 | 88 | 1017.5 |
| 20260901065504 | 56 | 226 | 2.0 | 6.0 | 0.00 | 0.00 | 0.00 | 89 | 1017.5 |
| 20260901065006 | 55 | 228 | 2.0 | 7.0 | 0.00 | 0.00 | 0.00 | 89 | 1017.5 |
| 20260901064504 | 55 | 225 | 2.0 | 7.0 | 0.00 | 0.00 | 0.00 | 89 | 1017.4 |
| 20260901064005 | 55 | 222 | 0.0 | 3.0 | 0.00 | 0.00 | 0.00 | 89 | 1017.5 |
| 20260901063504 | 55 | 253 | 0.0 | 2.0 | 0.00 | 0.00 | 0.00 | 89 | 1017.5 |
| 20260901063006 | 55 | 251 | 1.0 | 4.0 | 0.00 | 0.00 | 0.00 | 89 | 1017.4 |
| 20260901062504 | 55 | 233 | 1.0 | 4.0 | 0.00 | 0.00 | 0.00 | 89 | 1017.5 |
| 20260901061504 | 54 | 204 | 1.0 | 4.0 | 0.00 | 0.00 | 0.00 | 89 | 1017.4 |
| 20260901060005 | 54 | 183 | 1.0 | 3.0 | 0.00 | 0.00 | 0.00 | 89 | 1017.3 |
| 20260901055505 | 54 | 210 | 1.0 | 3.0 | 0.00 | 0.00 | 0.00 | 89 | 1017.3 |
| 20260901055005 | 54 | 227 | 1.0 | 3.0 | 0.00 | 0.00 | 0.00 | 88 | 1017.4 |
| 20260901054505 | 54 | 235 | 1.0 | 4.0 | 0.00 | 0.00 | 0.00 | 88 | 1017.5 |
| 20260901054005 | 54 | 228 | 2.0 | 5.0 | 0.00 | 0.00 | 0.00 | 88 | 1017.5 |
| 20260901053504 | 54 | 224 | 2.0 | 5.0 | 0.00 | 0.00 | 0.00 | 88 | 1017.5 |
| 20260901053004 | 54 | 223 | 1.0 | 3.0 | 0.00 | 0.00 | 0.00 | 88 | 1017.5 |
| 20260901052505 | 54 | 225 | 2.0 | 3.0 | 0.00 | 0.00 | 0.00 | 87 | 1017.6 |
| 20260901051504 | 54 | 235 | 2.0 | 5.0 | 0.00 | 0.00 | 0.00 | 87 | 1017.7 |
| 20260901051005 | 54 | 239 | 2.0 | 5.0 | 0.00 | 0.00 | 0.00 | 87 | 1017.5 |
| 20260901050504 | 54 | 233 | 2.0 | 4.0 | 0.00 | 0.00 | 0.00 | 87 | 1017.5 |
| 20260901050006 | 55 | 229 | 2.0 | 4.0 | 0.00 | 0.00 | 0.00 | 87 | 1017.6 |
| 20260901045504 | 55 | 223 | 2.0 | 4.0 | 0.00 | 0.00 | 0.00 | 87 | 1017.4 |
| 20260901044506 | 55 | 230 | 1.0 | 5.0 | 0.00 | 0.00 | 0.00 | 86 | 1017.4 |
| 20260901042504 | 55 | 233 | 1.0 | 4.0 | 0.00 | 0.00 | 0.00 | 86 | 1017.3 |
| 20260901041504 | 56 | 220 | 1.0 | 4.0 | 0.00 | 0.00 | 0.00 | 85 | 1017.4 |
| 20260901041005 | 56 | 217 | 2.0 | 5.0 | 0.00 | 0.00 | 0.00 | 85 | 1017.3 |
| 20260901040504 | 56 | 217 | 2.0 | 5.0 | 0.00 | 0.00 | 0.00 | 85 | 1017.4 |
| 20260901040004 | 55 | 222 | 2.0 | 5.0 | 0.00 | 0.00 | 0.00 | 86 | 1017.4 |
| 20260901035504 | 55 | 205 | 2.0 | 4.0 | 0.00 | 0.00 | 0.00 | 86 | 1017.4 |
| 20260901034504 | 55 | 196 | 1.0 | 3.0 | 0.00 | 0.00 | 0.00 | 86 | 1017.3 |
| 20260901034006 | 55 | 203 | 1.0 | 2.0 | 0.00 | 0.00 | 0.00 | 86 | 1017.3 |
| 20260901033504 | 55 | 202 | 1.0 | 2.0 | 0.00 | 0.00 | 0.00 | 86 | 1017.3 |
| 20260901033005 | 55 | 190 | 1.0 | 3.0 | 0.00 | 0.00 | 0.00 | 86 | 1017.3 |
| 20260901032504 | 55 | 176 | 1.0 | 3.0 | 0.00 | 0.00 | 0.00 | 86 | 1017.2 |
| 20260901032005 | 55 | 168 | 1.0 | 4.0 | 0.00 | 0.00 | 0.00 | 86 | 1017.2 |
| 20260901031006 | 55 | 173 | 2.0 | 5.0 | 0.00 | 0.00 | 0.00 | 86 | 1017.2 |
| 20260901030504 | 55 | 181 | 2.0 | 4.0 | 0.00 | 0.00 | 0.00 | 85 | 1017.2 |
| 20260901030006 | 55 | 201 | 1.0 | 3.0 | 0.00 | 0.00 | 0.00 | 85 | 1017.2 |
| 20260901025004 | 55 | 213 | 1.0 | 3.0 | 0.00 | 0.00 | 0.00 | 85 | 1017.3 |
| 20260901024504 | 55 | 189 | 1.0 | 3.0 | 0.00 | 0.00 | 0.00 | 85 | 1017.5 |
| 20260901024004 | 55 | 178 | 1.0 | 3.0 | 0.00 | 0.00 | 0.00 | 85 | 1017.5 |
| 20260901023504 | 55 | 178 | 1.0 | 3.0 | 0.00 | 0.00 | 0.00 | 84 | 1017.5 |
| 20260901022504 | 55 | 209 | 1.0 | 3.0 | 0.00 | 0.00 | 0.00 | 84 | 1017.4 |
| 20260901022006 | 55 | 225 | 1.0 | 3.0 | 0.00 | 0.00 | 0.00 | 84 | 1017.4 |
| 20260901021504 | 55 | 232 | 1.0 | 3.0 | 0.00 | 0.00 | 0.00 | 84 | 1017.5 |
| 20260901021007 | 55 | 229 | 1.0 | 4.0 | 0.00 | 0.00 | 0.00 | 84 | 1017.5 |
| 20260901020504 | 55 | 217 | 1.0 | 4.0 | 0.00 | 0.00 | 0.00 | 84 | 1017.6 |
| 20260901015504 | 55 | 212 | 1.0 | 3.0 | 0.00 | 0.00 | 0.00 | 84 | 1017.6 |
| 20260901015005 | 55 | 212 | 1.0 | 3.0 | 0.00 | 0.00 | 0.00 | 85 | 1017.7 |
| 20260901014504 | 55 | 214 | 1.0 | 3.0 | 0.00 | 0.00 | 0.00 | 84 | 1017.7 |
| 20260901014004 | 55 | 213 | 1.0 | 3.0 | 0.00 | 0.00 | 0.00 | 84 | 1017.8 |
| 20260901012504 | 55 | 225 | 1.0 | 4.0 | 0.00 | 0.00 | 0.00 | 84 | 1017.7 |
| 20260901012005 | 55 | 223 | 2.0 | 4.0 | 0.00 | 0.00 | 0.00 | 84 | 1017.7 |
| 20260901011504 | 55 | 217 | 1.0 | 4.0 | 0.00 | 0.00 | 0.00 | 84 | 1017.7 |
| 20260901010504 | 56 | 220 | 1.0 | 4.0 | 0.00 | 0.00 | 0.00 | 84 | 1017.8 |
| 20260901005504 | 56 | 232 | 2.0 | 4.0 | 0.00 | 0.00 | 0.00 | 84 | 1017.8 |
| 20260901005004 | 56 | 234 | 2.0 | 6.0 | 0.00 | 0.00 | 0.00 | 84 | 1017.9 |
| 20260901004503 | 55 | 225 | 2.0 | 6.0 | 0.00 | 0.00 | 0.00 | 84 | 1017.8 |
| 20260901004005 | 55 | 226 | 2.0 | 6.0 | 0.00 | 0.00 | 0.00 | 84 | 1017.8 |
| 20260901003504 | 55 | 219 | 2.0 | 6.0 | 0.00 | 0.00 | 0.00 | 84 | 1017.8 |
| 20260901003005 | 55 | 191 | 1.0 | 4.0 | 0.00 | 0.00 | 0.00 | 85 | 1017.8 |
| 20260901002503 | 55 | 207 | 1.0 | 4.0 | 0.00 | 0.00 | 0.00 | 85 | 1017.8 |
| 20260901002005 | 55 | 223 | 1.0 | 4.0 | 0.00 | 0.00 | 0.00 | 85 | 1017.8 |
| 20260901001504 | 55 | 210 | 1.0 | 4.0 | 0.00 | 0.00 | 0.00 | 85 | 1017.9 |
| 20260901001005 | 55 | 218 | 1.0 | 4.0 | 0.00 | 0.00 | 0.00 | 86 | 1017.9 |